Date,TemperatureHighF,TemperatureAvgF,TemperatureLowF,DewpointHighF,DewpointAvgF,DewpointLowF,HumidityHigh,HumidityAvg,HumidityLow,PressureMaxIn,PressureMinIn,WindSpeedMaxMPH,WindSpeedAvgMPH,GustSpeedMaxMPH,PrecipitationSumIn
2014-1-1,81.0,78.3,74.0,75.0,73.5,71.0,91,85,79,30.12,29.99,14,8,23,0.01
2014-1-2,82.0,78.5,75.0,74.0,72.2,71.0,91,81,76,30.00,29.87,12,4,24,0.00
2014-1-4,76.0,72.4,70.0,72.0,66.3,-99.9,92,84,78,30.10,29.99,15,8,24,0.01
2014-1-5,80.0,75.8,72.0,75.0,72.2,70.0,94,89,77,30.02,29.90,21,4,33,0.99
2014-1-6,83.0,75.8,63.0,76.0,71.1,46.0,93,85,53,30.11,29.93,26,4,34,0.01
2014-1-7,63.0,56.7,54.0,53.0,49.0,41.0,88,76,53,30.23,30.09,26,18,36,0.01
2014-1-8,71.0,64.2,55.0,70.0,62.8,53.0,97,95,90,30.20,30.09,17,8,27,0.00
2014-1-9,76.0,73.5,71.0,73.0,71.5,70.0,96,93,89,30.16,30.07,10,5,18,0.00
2014-1-10,79.0,77.0,75.0,75.0,73.3,71.0,91,88,84,30.11,30.00,12,6,21,0.00
2014-1-11,81.0,76.5,74.0,75.0,71.4,-99.9,93,87,81,30.07,29.95,10,3,20,0.00
2014-1-12,76.0,74.1,73.0,73.0,70.3,68.0,96,88,78,30.11,30.00,10,2,16,0.00
2014-1-13,79.0,76.7,75.0,73.0,71.6,70.0,87,84,81,30.10,29.99,11,4,18,0.00
2014-1-14,81.0,77.8,75.0,75.0,72.1,70.0,88,83,74,30.01,29.92,12,3,18,0.00
2014-1-15,77.0,70.4,64.0,72.0,65.1,56.0,93,83,73,29.99,29.89,19,7,25,0.00
2014-1-16,69.0,60.9,56.0,61.0,49.6,40.0,85,67,46,30.12,29.93,21,11,12,0.00
2014-1-17,63.0,57.0,51.0,45.0,41.3,36.0,73,57,40,30.18,30.06,14,6,0,0.00
2014-1-23,67.0,60.4,54.0,61.0,52.3,45.0,86,75,63,30.23,30.11,15,6,20,0.00
2014-1-24,69.0,63.6,60.0,61.0,58.3,56.0,89,83,74,30.29,30.15,17,8,24,0.00
2014-1-25,75.0,65.8,58.0,66.0,58.4,-99.9,92,81,69,30.15,30.01,12,2,18,0.00
2014-1-26,77.0,70.0,62.0,68.0,63.6,59.0,92,81,68,30.04,29.95,11,2,15,0.00
2014-1-27,79.0,74.8,72.0,71.0,68.8,65.0,92,82,75,30.00,29.92,6,1,12,0.00
2014-1-28,80.0,73.7,69.0,73.0,70.4,67.0,95,89,79,30.04,29.93,5,0,11,0.00
2014-1-29,81.0,74.6,68.0,76.0,71.9,67.0,95,92,85,30.01,29.92,11,2,20,0.00
2014-1-30,72.0,68.1,65.0,71.0,66.8,64.0,97,95,94,30.05,29.96,14,4,20,0.00
2014-1-31,81.0,75.8,70.0,77.0,73.2,69.0,98,92,84,30.03,29.94,9,2,14,0.00
2014-2-1,82.0,76.7,75.0,76.0,71.6,-99.9,93,86,80,30.08,29.99,10,5,19,0.00
2014-2-2,79.0,77.3,76.0,74.0,72.3,70.0,88,85,80,30.10,29.99,12,7,19,0.00
2014-2-3,81.0,77.9,76.0,76.0,74.2,73.0,91,88,84,30.06,29.97,11,5,21,0.00
2014-2-4,80.0,77.9,76.0,75.0,73.8,72.0,92,88,84,30.06,29.98,14,8,21,0.00
2014-2-5,82.0,78.8,77.0,76.0,74.0,72.0,89,86,82,30.06,29.97,13,5,24,0.03
2014-2-6,81.0,77.9,76.0,73.0,71.8,69.0,88,82,75,30.06,29.98,8,3,13,0.03
2014-2-7,81.0,78.0,75.0,73.0,71.8,70.0,87,82,77,30.07,29.99,9,4,15,0.00
2014-2-8,82.0,78.4,76.0,75.0,73.1,71.0,90,84,79,30.05,29.96,11,3,17,0.00
2014-2-9,80.0,74.8,72.0,72.0,70.8,69.0,94,87,75,30.04,29.94,10,3,15,0.00
2014-2-10,81.0,75.9,72.0,73.0,70.6,69.0,91,84,73,30.04,29.94,9,2,12,0.00
2014-2-11,82.0,76.9,73.0,72.0,69.7,68.0,87,79,70,30.04,29.95,8,1,12,0.01
2014-2-12,81.0,76.6,71.0,74.0,71.1,66.0,92,83,77,29.99,29.80,22,5,7,0.01
2014-2-13,77.0,72.4,69.0,72.0,66.9,61.0,89,83,72,29.85,29.75,23,12,0,0.00
2014-3-4,78.0,76.1,72.0,70.0,68.9,67.0,88,79,71,30.02,29.93,10,2,16,0.00
2014-3-5,81.0,77.3,76.0,74.0,71.0,69.0,84,81,78,29.99,29.90,13,3,21,0.00
2014-3-6,78.0,78.0,78.0,73.0,73.0,73.0,86,86,85,29.87,29.86,8,8,0,0.00
2014-4-13,81.0,76.0,74.0,73.0,66.9,-99.9,85,79,70,30.03,29.93,9,4,0,0.00
2014-4-14,83.0,79.7,77.0,76.0,74.1,72.0,88,83,77,29.96,29.86,11,7,0,0.00
2014-4-15,84.0,80.6,78.0,78.0,75.3,74.0,89,84,79,29.90,29.84,11,7,0,0.00
2014-4-16,82.0,78.1,74.0,75.0,73.3,71.0,92,85,76,30.02,29.88,12,5,0,0.00
2014-4-17,83.0,79.9,77.0,77.0,74.7,72.0,89,84,80,30.07,29.96,13,7,0,0.00
2014-4-18,84.0,80.7,78.0,77.0,74.2,72.0,88,81,76,30.02,29.91,14,10,0,0.00
2014-4-19,82.0,79.3,75.0,77.0,73.6,68.0,91,83,76,29.96,29.86,16,10,0,0.00
2014-4-20,77.0,73.4,72.0,67.0,63.0,-99.9,78,72,65,30.00,29.92,14,8,0,0.00
2014-4-21,79.0,73.7,69.0,70.0,66.0,64.0,86,77,65,29.99,29.87,10,5,0,0.00
2014-4-22,81.0,76.0,72.0,71.0,68.5,67.0,85,78,70,29.92,29.82,9,1,0,0.00
2014-4-23,79.0,75.3,71.0,69.0,68.0,67.0,88,78,68,29.94,29.85,10,3,0,0.00
2014-4-24,82.0,76.4,72.0,72.0,68.8,66.0,85,77,68,29.99,29.90,4,0,0,0.00
2014-4-25,85.0,79.9,76.0,76.0,72.5,70.0,87,78,69,29.98,29.88,12,1,0,0.00
2014-4-26,89.0,80.6,75.0,72.0,69.6,65.0,83,70,45,29.97,29.89,5,1,0,0.00
2014-4-27,83.0,79.0,78.0,75.0,70.2,-99.9,85,77,73,29.98,29.89,9,4,0,0.00
2014-4-28,85.0,81.7,79.0,78.0,76.0,73.0,89,83,78,29.94,29.84,12,7,0,0.00
2014-4-29,85.0,81.5,78.0,78.0,75.8,73.0,89,83,74,29.97,29.83,13,8,0,0.00
2014-4-30,86.0,82.6,81.0,79.0,77.1,76.0,88,84,77,30.01,29.91,14,9,0,0.00
2014-5-1,84.0,81.5,81.0,78.0,76.4,76.0,88,85,80,29.99,29.94,12,11,0,0.00
2014-5-3,87.0,81.4,76.0,78.0,75.2,72.0,90,82,70,29.98,29.88,14,7,0,0.00
2014-5-4,84.0,77.6,72.0,75.0,67.7,-99.9,91,74,47,30.02,29.93,16,5,0,0.00
2014-5-5,82.0,78.4,75.0,70.0,67.3,64.0,81,69,62,30.01,29.93,8,4,0,0.00
2014-5-6,83.0,79.6,77.0,71.0,68.4,65.0,77,69,60,29.99,29.92,9,3,0,0.00
2014-5-7,80.0,79.3,79.0,72.0,71.3,71.0,78,77,77,29.97,29.97,9,9,0,0.00
2014-5-13,81.0,79.9,78.0,76.0,74.9,73.0,88,85,83,29.96,29.90,12,10,0,0.00
2014-5-14,83.0,79.8,75.0,77.0,74.5,72.0,92,84,79,30.00,29.90,18,12,0,0.00
2014-5-15,86.0,81.5,74.0,79.0,76.2,72.0,93,84,76,29.97,29.89,12,7,0,0.00
2014-5-16,76.0,75.7,74.0,74.0,73.7,72.0,95,94,93,29.97,29.91,9,2,0,0.00
2014-5-24,85.0,82.3,80.0,76.0,73.5,72.0,80,75,70,30.06,29.98,7,1,14,0.00
2014-5-25,85.0,80.4,79.0,77.0,72.3,-99.9,84,78,75,30.06,29.97,11,2,19,0.00
2014-5-26,84.0,81.7,78.0,77.0,75.4,71.0,87,82,77,30.11,30.02,13,7,19,0.04
2014-5-27,84.0,81.4,80.0,76.0,75.1,74.0,85,81,76,30.09,29.98,13,8,21,0.01
2014-5-28,84.0,81.5,79.0,77.0,75.2,73.0,86,81,75,30.03,29.95,11,6,19,0.00
2014-5-29,85.0,81.6,80.0,77.0,75.5,73.0,86,82,75,29.99,29.90,12,7,19,0.00
2014-5-30,81.0,80.7,80.0,76.0,75.2,74.0,85,83,82,29.97,29.90,10,7,19,0.00
2014-6-2,83.0,81.5,80.0,76.0,75.6,75.0,86,82,79,29.99,29.93,14,10,23,0.00
2014-6-3,81.0,80.0,79.0,76.0,72.4,69.0,88,78,70,29.98,29.91,13,8,23,0.01
2014-6-4,84.0,80.2,78.0,75.0,72.3,69.0,84,77,73,29.94,29.86,10,4,16,0.00
2014-6-5,85.0,81.4,79.0,75.0,72.9,71.0,81,76,71,29.93,29.84,10,6,18,0.00
2014-6-6,85.0,81.5,79.0,79.0,75.6,73.0,89,83,74,29.95,29.88,9,3,15,0.00
2014-6-7,86.0,82.5,79.0,78.0,76.1,75.0,88,81,73,29.98,29.90,6,1,14,0.00
2014-6-8,87.0,81.4,80.0,78.0,72.1,-99.9,84,77,74,29.98,29.88,6,2,13,0.00
2014-6-9,87.0,83.7,80.0,78.0,76.1,71.0,83,78,73,29.96,29.87,8,3,12,0.00
2014-6-10,88.0,83.7,81.0,78.0,75.9,74.0,86,78,66,30.00,29.92,10,6,17,0.00
2014-6-11,88.0,84.2,81.0,79.0,77.0,75.0,86,80,71,29.99,29.90,10,4,16,0.00
2014-6-12,86.0,80.9,74.0,78.0,73.4,68.0,93,79,58,30.02,29.92,28,6,45,0.06
2014-6-13,86.0,83.0,80.0,79.0,76.7,75.0,88,82,76,30.01,29.93,11,6,17,0.01
2014-6-14,87.0,83.8,82.0,80.0,77.9,77.0,87,83,77,30.02,29.95,10,6,17,0.00
2014-6-15,87.0,81.6,77.0,80.0,72.9,-99.9,87,81,77,30.07,29.95,13,7,29,0.00
2014-6-16,86.0,83.4,82.0,78.0,76.7,73.0,85,80,71,30.08,30.01,12,8,21,0.00
2014-6-17,85.0,80.3,74.0,77.0,74.7,71.0,91,83,75,30.09,29.99,14,7,29,0.00
2014-6-18,84.0,82.0,80.0,76.0,75.0,73.0,86,80,75,30.06,29.98,14,8,23,0.00
2014-6-19,86.0,81.3,76.0,77.0,74.2,72.0,90,79,69,30.09,30.00,14,4,22,0.01
2014-6-20,86.0,82.6,79.0,78.0,75.9,73.0,88,80,74,30.05,29.98,7,3,11,0.01
2014-6-21,87.0,83.3,80.0,78.0,75.7,74.0,84,78,71,30.00,29.93,7,2,11,0.00
2014-6-22,90.0,82.9,81.0,78.0,71.4,-99.9,84,72,66,29.99,29.90,7,4,12,0.00
2014-6-23,89.0,84.8,82.0,79.0,77.0,74.0,83,78,72,30.05,29.93,10,3,15,0.00
2014-6-24,87.0,84.7,82.0,79.0,78.2,76.0,85,81,75,30.10,30.03,10,3,15,0.00
2014-6-25,87.0,84.9,82.0,80.0,78.1,76.0,84,80,75,30.09,30.01,8,2,15,0.00
2014-6-26,87.0,84.9,82.0,81.0,78.5,77.0,90,82,75,30.06,29.95,9,3,14,0.00
2014-6-27,88.0,84.7,83.0,79.0,77.0,76.0,83,78,70,30.06,29.96,10,4,13,0.00
2014-6-28,88.0,84.4,81.0,79.0,77.3,76.0,88,79,70,30.10,30.01,8,3,14,0.00
2014-6-29,89.0,80.4,80.0,79.0,69.6,-99.9,86,76,65,30.09,30.01,16,5,22,0.00
2014-6-30,89.0,82.8,80.0,78.0,75.5,73.0,89,79,70,30.04,29.89,14,4,22,0.00
2014-7-1,88.0,84.6,81.0,80.0,78.2,76.0,90,82,73,29.91,29.84,14,3,20,0.00
2014-7-2,90.0,86.1,83.0,80.0,78.8,76.0,83,79,72,29.98,29.85,14,8,23,0.00
2014-7-3,90.0,86.3,84.0,80.0,78.4,77.0,85,78,67,30.06,29.96,10,3,19,0.00
2014-7-4,89.0,86.1,83.0,80.0,78.2,76.0,82,77,73,30.09,30.03,9,2,18,0.00
2014-7-5,88.0,84.4,82.0,79.0,77.1,75.0,83,79,72,30.09,30.01,7,2,13,0.00
2014-7-6,88.0,81.7,83.0,78.0,70.8,-99.9,83,75,72,30.05,29.98,10,4,18,0.00
2014-7-7,89.0,85.0,83.0,80.0,77.7,75.0,86,79,72,30.06,29.96,12,6,19,0.00
2014-7-8,88.0,84.5,80.0,79.0,77.5,75.0,90,79,71,30.09,30.00,11,3,18,0.00
2014-7-9,90.0,84.8,79.0,80.0,77.6,73.0,87,79,72,30.09,30.02,16,5,22,0.00
2014-7-10,88.0,84.7,82.0,79.0,77.3,75.0,84,79,73,30.07,30.00,10,7,15,0.00
2014-7-11,88.0,85.6,84.0,79.0,77.6,76.0,82,77,71,30.08,30.00,9,6,16,0.00
2014-7-12,89.0,84.7,82.0,79.0,77.7,76.0,87,80,73,30.06,30.01,12,7,16,0.00
2014-7-13,88.0,80.9,79.0,79.0,73.6,74.0,86,75,73,30.06,29.95,13,6,23,0.00
2014-7-14,89.0,85.8,84.0,79.0,77.7,76.0,83,77,70,30.06,29.98,8,4,14,0.00
2014-7-15,88.0,84.3,83.0,79.0,76.9,75.0,83,79,72,30.01,29.94,7,3,12,0.00
2014-7-16,90.0,86.3,83.0,79.0,77.6,76.0,83,76,68,29.96,29.92,12,5,18,0.00
2014-7-17,90.0,86.0,79.0,80.0,77.4,71.0,85,76,69,30.00,29.93,13,4,25,0.00
2014-7-18,90.0,85.8,84.0,80.0,78.1,77.0,82,78,69,30.04,29.96,6,1,14,0.00
2014-7-19,91.0,86.3,82.0,80.0,77.9,76.0,86,77,64,30.04,29.96,6,1,19,0.00
2014-7-20,90.0,83.2,83.0,79.0,75.5,77.0,84,77,69,30.03,29.94,6,1,14,0.00
2014-7-21,88.0,84.0,78.0,79.0,77.5,75.0,90,81,71,30.01,29.95,10,1,21,0.00
2014-7-22,89.0,83.7,76.0,79.0,77.4,73.0,94,81,71,30.06,29.93,12,2,22,0.00
2014-7-23,90.0,86.1,84.0,80.0,78.6,78.0,85,79,70,30.04,29.97,11,2,17,0.00
2014-7-24,90.0,86.2,82.0,80.0,77.9,76.0,82,77,67,30.01,29.96,12,4,18,0.00
2014-7-25,90.0,86.5,84.0,81.0,79.0,78.0,83,79,73,30.05,29.98,8,5,13,0.00
2014-7-26,90.0,87.0,85.0,79.0,77.7,77.0,81,74,66,30.07,29.98,12,5,19,0.00
2014-7-27,90.0,83.2,84.0,79.0,74.1,76.0,78,71,66,30.08,30.01,9,3,14,0.00
2014-7-28,92.0,87.2,83.0,80.0,78.2,76.0,82,75,67,30.06,29.98,5,2,10,0.00
2014-7-29,91.0,87.0,84.0,80.0,78.5,76.0,86,76,63,30.00,29.93,11,6,17,0.00
2014-7-30,92.0,86.9,84.0,80.0,77.5,74.0,79,74,64,29.97,29.91,12,2,26,0.00
2014-7-31,90.0,81.1,80.0,78.0,73.1,75.0,86,76,67,29.96,29.91,7,2,21,0.00
2014-8-1,90.0,86.6,82.0,79.0,77.5,76.0,83,75,67,29.96,29.88,6,1,14,0.00
2014-8-2,90.0,84.5,79.0,80.0,77.5,75.0,87,80,70,29.93,29.85,7,1,14,0.00
2014-8-3,84.0,81.6,75.0,79.0,76.9,73.0,95,86,80,29.93,29.82,11,4,24,0.00
2014-8-4,84.0,80.6,78.0,78.0,75.7,72.0,92,85,78,30.01,29.85,13,6,28,0.00
2014-8-5,90.0,85.2,79.0,80.0,77.7,75.0,90,79,69,30.05,29.93,10,3,22,0.00
2014-8-6,90.0,86.5,83.0,80.0,77.9,76.0,82,76,69,30.03,29.95,5,1,9,0.00
2014-8-7,90.0,87.0,84.0,80.0,78.1,77.0,80,75,70,29.98,29.91,4,1,11,0.00
2014-8-8,89.0,86.4,84.0,80.0,78.2,76.0,83,77,70,30.02,29.92,9,4,17,0.00
2014-8-9,90.0,86.4,84.0,79.0,76.9,75.0,80,74,65,30.05,29.96,7,4,14,0.00
2014-8-10,90.0,87.0,85.0,80.0,78.1,77.0,81,75,69,30.04,29.97,7,3,12,0.22
2014-8-11,90.0,86.8,84.0,79.0,77.2,74.0,80,73,61,30.04,29.96,5,1,12,0.22
2014-8-12,90.0,86.7,84.0,80.0,77.7,76.0,81,75,69,30.01,29.95,10,5,18,0.00
2014-8-13,91.0,87.1,84.0,80.0,77.7,76.0,80,74,69,30.02,29.95,7,4,14,0.00
2014-8-14,91.0,87.6,85.0,80.0,77.8,77.0,80,73,63,30.03,29.95,8,2,13,0.00
2014-8-15,92.0,87.8,85.0,81.0,78.3,75.0,80,74,66,30.05,29.96,10,2,17,0.00
2014-8-16,91.0,87.6,83.0,82.0,78.4,75.0,83,75,69,30.07,29.94,12,3,20,0.03
2014-8-17,90.0,85.0,86.0,80.0,75.9,77.0,79,72,68,30.06,30.00,8,4,14,0.02
2014-8-18,90.0,87.0,86.0,80.0,78.6,77.0,82,76,69,30.04,29.93,9,6,16,0.00
2014-8-19,92.0,86.8,83.0,80.0,78.4,75.0,85,76,65,30.01,29.93,10,2,16,0.00
2014-8-20,90.0,87.2,85.0,80.0,78.5,77.0,81,76,68,30.04,29.95,9,2,14,0.00
2014-8-21,90.0,86.8,85.0,80.0,78.8,77.0,82,77,70,30.07,30.00,10,4,15,0.00
2014-8-22,89.0,86.6,85.0,79.0,76.8,73.0,81,73,65,30.06,29.93,8,4,15,0.00
2014-8-23,90.0,86.8,84.0,79.0,77.1,74.0,79,73,67,29.95,29.81,9,4,16,0.00
2014-8-24,93.0,84.9,84.0,79.0,75.4,75.0,81,72,64,29.84,29.71,7,2,13,0.00
2014-8-25,91.0,85.5,81.0,81.0,78.5,77.0,90,80,70,29.74,29.66,12,3,21,0.42
2014-8-26,89.0,84.5,78.0,80.0,77.2,74.0,94,79,69,29.84,29.72,13,7,23,0.35
2014-8-27,89.0,86.3,82.0,79.0,76.9,75.0,87,74,68,29.94,29.81,13,7,24,0.01
2014-8-28,90.0,85.2,79.0,80.0,78.6,76.0,92,81,71,29.98,29.88,12,5,20,0.28
2014-8-29,90.0,86.8,85.0,81.0,79.8,79.0,83,80,73,30.03,29.93,11,6,17,0.07
2014-8-30,87.0,86.3,84.0,81.0,78.2,77.0,87,77,72,30.05,29.97,15,10,24,0.16
2014-8-31,88.0,84.6,84.0,79.0,76.5,77.0,81,75,72,30.05,29.98,13,8,23,0.00
2014-9-1,88.0,85.9,82.0,79.0,77.5,75.0,84,76,71,30.05,29.96,11,6,21,0.00
2014-9-2,87.0,84.3,79.0,78.0,76.4,72.0,86,77,71,30.02,29.93,14,6,20,0.38
2014-9-3,86.0,82.9,78.0,78.0,75.6,73.0,86,79,73,30.00,29.90,14,5,24,0.25
2014-9-4,88.0,84.4,80.0,79.0,77.1,74.0,86,79,71,30.06,29.96,20,3,28,0.25
2014-9-5,88.0,85.7,84.0,81.0,78.5,76.0,83,79,75,30.06,29.96,10,3,20,0.00
2014-9-6,87.0,85.3,79.0,80.0,78.4,74.0,86,80,76,30.01,29.89,21,5,34,0.01
2014-9-7,88.0,81.6,78.0,80.0,75.5,71.0,88,81,77,29.98,29.88,13,5,22,0.22
2014-9-8,87.0,85.0,83.0,78.0,77.2,75.0,85,78,74,30.01,29.92,12,7,25,0.03
2014-9-9,87.0,84.1,81.0,78.0,75.8,74.0,83,76,71,29.99,29.90,14,8,24,0.00
2014-9-10,83.0,80.2,75.0,77.0,75.5,72.0,94,86,78,29.98,29.88,15,4,22,0.61
2014-9-11,90.0,83.8,81.0,78.0,75.7,74.0,86,77,64,29.98,29.90,8,2,13,0.03
2014-9-12,83.0,79.6,76.0,77.0,74.6,72.0,92,85,73,29.98,29.88,13,2,25,0.34
2014-9-13,85.0,80.9,74.0,78.0,75.1,72.0,94,83,75,30.03,29.90,20,8,36,1.24
2014-9-14,86.0,81.7,79.0,79.0,75.2,73.0,87,80,72,30.09,29.99,11,3,20,1.24
2014-9-15,88.0,85.0,84.0,79.0,78.0,76.0,86,80,74,30.09,30.02,8,2,15,0.00
2014-9-16,87.0,84.0,81.0,79.0,76.8,75.0,86,79,71,30.06,29.92,9,2,12,0.00
2014-9-17,88.0,83.7,81.0,78.0,76.2,73.0,86,78,69,29.96,29.85,6,1,11,0.03
2014-9-18,85.0,81.4,77.0,78.0,75.4,72.0,87,82,77,29.92,29.83,14,2,20,0.09
2014-9-19,87.0,83.1,81.0,78.0,76.4,75.0,83,80,74,29.92,29.85,7,1,12,0.07
2014-9-20,89.0,83.4,80.0,80.0,77.1,73.0,89,82,75,29.95,29.83,14,5,21,0.00
2014-9-21,89.0,82.8,80.0,78.0,74.8,73.0,85,76,66,29.99,29.87,8,1,14,0.00
2014-9-22,86.0,82.6,74.0,79.0,76.4,72.0,93,84,75,30.01,29.88,10,1,24,1.17
2014-9-23,83.0,79.9,76.0,78.0,75.4,73.0,91,87,80,30.00,29.86,17,3,30,0.65
2014-9-24,84.0,80.7,76.0,78.0,76.1,74.0,93,86,79,30.00,29.89,18,4,27,0.56
2014-9-25,86.0,82.6,79.0,80.0,77.6,75.0,90,85,76,29.98,29.89,17,6,33,0.07
2014-9-26,88.0,84.0,80.0,81.0,78.3,75.0,89,83,76,29.93,29.85,13,4,23,0.02
2014-9-27,87.0,84.8,83.0,79.0,78.3,76.0,85,81,77,29.92,29.84,13,4,18,0.01
2014-9-28,86.0,83.3,83.0,79.0,76.8,76.0,85,80,76,29.93,29.84,9,2,17,0.00
2014-9-29,88.0,84.9,82.0,80.0,78.0,76.0,85,80,74,29.89,29.79,7,1,12,0.00
2014-9-30,89.0,85.0,81.0,79.0,77.9,77.0,88,80,72,29.86,29.79,11,5,19,0.00
2014-10-1,90.0,86.1,83.0,80.0,78.3,76.0,84,78,71,29.95,29.83,11,2,14,0.00
2014-10-2,89.0,85.1,82.0,80.0,78.5,76.0,87,81,74,30.01,29.90,8,1,14,0.00
2014-10-3,89.0,85.6,83.0,80.0,78.5,77.0,86,80,73,30.00,29.90,14,4,20,0.00
2014-10-4,87.0,84.8,81.0,79.0,77.5,73.0,84,79,74,29.96,29.80,18,8,26,0.00
2014-10-5,82.0,78.5,75.0,76.0,65.5,61.0,86,64,51,29.95,29.84,15,7,22,0.00
2014-10-6,86.0,80.8,77.0,76.0,71.2,62.0,85,73,59,30.00,29.90,13,3,23,0.00
2014-10-7,87.0,82.8,77.0,79.0,76.2,70.0,86,81,74,30.03,29.93,12,2,24,0.06
2014-10-8,86.0,82.7,80.0,79.0,76.9,75.0,90,83,74,30.05,29.95,10,3,17,0.06
2014-10-9,85.0,82.9,80.0,79.0,75.9,73.0,90,80,71,30.01,29.91,13,6,26,0.05
2014-10-10,86.0,83.5,82.0,76.0,74.3,73.0,79,74,68,29.96,29.87,12,6,20,0.05
2014-10-11,86.0,83.4,82.0,78.0,76.1,74.0,82,79,74,29.95,29.88,11,5,20,0.00
2014-10-12,86.0,82.4,82.0,79.0,76.3,76.0,85,81,77,29.99,29.91,11,6,19,0.00
2014-10-13,85.0,83.4,81.0,78.0,77.3,75.0,86,82,79,30.00,29.94,16,9,26,0.00
2014-10-14,85.0,83.1,80.0,80.0,77.9,75.0,89,84,81,29.97,29.88,13,6,24,0.16
2014-10-15,88.0,84.1,82.0,80.0,78.0,76.0,88,82,74,29.94,29.85,9,2,15,0.02
2014-10-16,84.0,80.1,76.0,78.0,71.5,67.0,87,76,62,29.93,29.84,16,9,23,0.00
2014-10-17,82.0,77.4,73.0,69.0,66.1,64.0,79,69,56,29.96,29.87,14,4,20,0.00
2014-10-18,83.0,78.9,76.0,71.0,68.1,66.0,79,70,62,29.95,29.86,5,0,9,0.00
2014-10-19,83.0,78.7,76.0,72.0,68.6,67.0,80,70,64,29.96,29.89,9,2,14,0.00
2014-10-20,83.0,81.1,77.0,76.0,73.3,70.0,90,77,69,29.97,29.87,14,5,22,0.14
2014-10-21,82.0,78.1,75.0,76.0,74.0,71.0,93,87,76,29.94,29.84,14,4,22,0.01
2014-10-22,81.0,77.4,73.0,77.0,74.0,70.0,93,89,85,29.91,29.85,7,1,18,0.33
2014-10-23,79.0,76.3,74.0,75.0,73.6,72.0,95,92,84,29.88,29.78,13,6,22,0.25
2014-10-24,78.0,76.0,74.0,76.0,74.1,73.0,97,94,87,29.83,29.70,19,8,32,0.03
2014-10-25,81.0,76.3,72.0,72.0,68.1,66.0,89,76,60,29.90,29.79,17,9,25,0.01
2014-10-26,81.0,75.9,72.0,71.0,68.0,66.0,86,77,65,29.97,29.85,16,6,23,0.01
2014-10-27,82.0,77.5,74.0,72.0,68.6,63.0,83,74,66,30.03,29.93,9,3,18,0.00
2014-10-28,82.0,80.0,79.0,73.0,71.6,70.0,80,76,72,30.07,29.99,9,3,18,0.00
2014-10-29,84.0,80.4,78.0,73.0,71.4,69.0,79,74,67,30.03,29.93,6,2,18,0.00
2014-10-30,85.0,78.9,76.0,72.0,70.1,68.0,85,75,62,29.94,29.82,1,0,8,0.00
2014-10-31,82.0,78.6,75.0,73.0,70.7,68.0,83,77,71,29.86,29.75,18,7,26,0.00
2014-11-1,78.0,71.7,63.0,68.0,61.3,50.0,83,70,59,30.09,29.86,24,13,33,0.00
2014-11-2,67.0,61.3,55.0,54.0,48.2,45.0,76,63,51,30.21,30.09,21,11,30,0.00
2014-11-3,75.0,68.3,62.0,64.0,59.2,53.0,81,73,59,30.22,30.14,17,8,27,0.00
2014-11-4,77.0,75.0,72.0,67.0,63.8,61.0,75,68,57,30.17,30.06,17,8,23,0.00
2014-11-5,79.0,76.0,73.0,71.0,68.9,66.0,86,79,71,30.11,29.99,11,5,21,0.00
2014-11-6,81.0,76.6,74.0,72.0,69.9,68.0,89,80,68,30.04,29.93,7,1,13,0.00
2014-11-7,80.0,74.9,72.0,71.0,69.3,67.0,91,83,70,29.96,29.86,8,2,14,0.00
2014-11-8,81.0,75.0,72.0,71.0,68.8,67.0,92,80,72,29.90,29.81,5,0,10,0.00
2014-11-9,83.0,76.2,69.0,74.0,70.7,66.0,93,83,74,29.85,29.76,18,6,24,0.09
2014-11-10,76.0,71.1,67.0,69.0,66.7,64.0,93,86,78,29.92,29.82,16,7,24,0.05
2014-11-11,76.0,71.2,68.0,66.0,64.5,63.0,89,79,68,29.93,29.84,13,7,23,0.01
2014-11-12,80.0,69.9,68.0,71.0,62.5,61.0,89,76,67,29.99,29.88,14,5,20,0.00
2014-11-13,80.0,75.5,72.0,73.0,70.9,68.0,92,86,77,29.98,29.88,7,2,15,0.00
2014-11-18,81.0,73.8,62.0,76.0,70.5,57.0,95,90,80,30.12,29.94,19,7,29,0.00
2014-11-19,67.0,63.9,61.0,64.0,61.5,57.0,94,92,85,30.14,30.06,20,13,29,0.07
2014-11-20,77.0,70.4,66.0,70.0,66.5,63.0,94,88,77,30.10,30.00,16,10,31,0.01
2014-11-21,75.0,73.6,71.0,73.0,71.7,69.0,97,93,90,30.09,30.01,16,9,28,0.42
2014-11-22,79.0,75.5,76.0,74.0,71.4,72.0,90,85,84,30.10,29.98,14,11,26,0.02
2014-11-23,81.0,79.3,78.0,77.0,75.5,74.0,93,89,85,30.00,29.85,16,7,25,0.01
2014-11-24,83.0,80.4,78.0,80.0,77.9,76.0,95,93,84,30.00,29.88,8,1,17,0.00
2014-11-25,83.0,80.3,79.0,78.0,77.3,76.0,95,91,86,29.99,29.86,13,6,25,0.00
2014-11-26,82.0,74.0,64.0,79.0,69.0,53.0,95,85,62,30.12,29.88,21,11,28,0.04
2014-11-27,71.0,66.1,60.0,59.0,53.7,47.0,87,66,45,30.21,30.11,19,11,27,0.04
2014-11-28,69.0,62.8,58.0,58.0,54.2,50.0,84,74,65,30.19,30.09,20,15,27,0.00
2014-11-29,74.0,65.6,59.0,63.0,58.8,55.0,90,78,65,30.18,30.10,17,8,29,0.00
2014-11-30,76.0,73.1,70.0,69.0,64.8,62.0,90,76,64,30.20,30.11,14,8,24,0.01
2014-12-1,78.0,75.0,72.0,71.0,69.2,67.0,88,82,78,30.19,30.08,13,8,22,0.01
2014-12-2,78.0,75.7,74.0,72.0,70.1,69.0,87,83,79,30.10,30.00,9,5,18,0.05
2014-12-3,79.0,75.4,73.0,71.0,70.1,69.0,91,84,73,30.08,29.98,10,4,21,0.05
2014-12-4,79.0,75.0,71.0,73.0,70.9,69.0,94,87,77,30.07,29.98,11,4,17,0.01
2014-12-5,80.0,77.1,75.0,74.0,72.3,71.0,90,85,81,30.13,30.03,13,5,23,0.04
2014-12-6,79.0,75.1,73.0,72.0,67.8,66.0,84,77,71,30.13,30.04,10,5,18,0.04
2014-12-7,77.0,73.0,70.0,72.0,68.1,64.0,90,85,77,30.05,29.93,16,6,23,0.00
2014-12-8,76.0,70.6,66.0,65.0,64.1,62.0,91,80,67,30.02,29.94,17,7,21,0.00
2014-12-9,70.0,66.2,63.0,63.0,60.2,55.0,88,81,74,30.03,29.93,17,12,26,0.00
2014-12-10,64.0,56.0,55.0,55.0,43.8,43.0,82,59,49,30.12,30.01,24,9,32,0.00
2014-12-11,67.0,61.9,59.0,57.0,50.9,43.0,79,66,55,30.18,30.07,6,0,9,0.00
2014-12-12,66.0,63.4,61.0,60.0,56.1,50.0,86,77,64,30.21,30.09,12,4,17,0.00
2014-12-13,71.0,64.7,59.0,63.0,58.0,54.0,84,79,74,30.10,29.99,14,7,21,0.00
2014-12-14,73.0,65.2,62.0,62.0,57.2,54.0,85,75,58,30.05,29.96,11,4,19,0.00
2014-12-15,74.0,69.1,63.0,61.0,58.1,54.0,89,69,53,30.09,29.98,8,2,13,0.00
2014-12-16,74.0,68.4,63.0,63.0,60.4,57.0,86,76,63,30.16,30.05,8,1,13,0.00
2014-12-17,75.0,69.1,65.0,65.0,61.4,59.0,88,77,61,30.16,30.05,7,1,13,0.00
2014-12-18,75.0,69.6,66.0,67.0,63.5,59.0,88,81,71,30.12,30.02,7,1,12,0.00
2014-12-19,76.0,70.3,66.0,66.0,63.2,61.0,90,79,64,30.06,29.96,7,2,13,0.00
2014-12-20,78.0,68.1,73.0,69.0,60.1,63.0,84,75,70,30.04,29.97,9,2,15,0.00
2014-12-21,78.0,75.8,72.0,71.0,69.4,68.0,87,81,77,30.06,29.96,10,3,19,0.00
2014-12-22,80.0,77.1,75.0,75.0,72.2,69.0,90,85,80,29.99,29.89,9,4,16,0.00
2014-12-23,80.0,78.0,76.0,75.0,74.0,73.0,90,88,84,29.94,29.85,20,8,27,0.00
2014-12-24,81.0,78.4,77.0,77.0,74.9,72.0,93,89,86,29.95,29.85,15,8,28,0.10
2014-12-25,79.0,72.8,71.0,77.0,68.5,63.0,96,87,77,30.12,29.94,17,8,26,0.32
2014-12-26,78.0,73.5,69.0,74.0,71.0,67.0,97,92,84,30.13,30.05,8,2,15,0.04
2014-12-27,79.0,75.8,74.0,73.0,70.7,70.0,93,83,77,30.18,30.07,11,3,19,0.02
2014-12-28,81.0,77.5,76.0,73.0,71.2,69.0,87,81,76,30.12,30.04,10,2,17,0.02
2014-12-29,81.0,78.3,77.0,75.0,72.9,71.0,89,84,77,30.10,30.01,11,3,19,0.01
2014-12-30,79.0,77.0,74.0,74.0,71.3,70.0,92,83,76,30.15,30.04,6,1,13,0.01
2014-12-31,79.0,76.3,74.0,73.0,71.1,69.0,91,84,77,30.17,30.06,8,1,16,0.01
2015-1-1,80.0,75.8,72.0,74.0,71.2,70.0,95,86,76,30.16,30.06,10,2,16,0.01
2015-1-2,80.0,78.3,77.0,74.0,72.7,71.0,86,83,80,30.18,30.09,13,8,22,0.00